Regional Weather Roundup
Issued by NWS

Home | Current Version | Previous Version | Graphics & Text | Print | Product List | Glossary On
Versions: 1 2 3 4 5 6 7 8 9 10 11 12 13 14 15 16 17 18 19 20 21 22 23 24 25 26 27 28 29 30 31 32 33 34 35 36 37 38 39 40 41 42 43 44 45 46 47 48 49 50
000
ASUS43 KBIS 241602
RWRND

NORTH DAKOTA REGIONAL WEATHER ROUNDUP
NATIONAL WEATHER SERVICE BISMARCK ND
1100 AM CDT FRI MAR 24 2017

NOTE: "FAIR" INDICATES FEW OR NO CLOUDS BELOW 12,000 FEET WITH NO
SIGNIFICANT WEATHER AND/OR OBSTRUCTIONS TO VISIBILITY.


NDZ001>003-009>011-017-241700-
NORTHWEST NORTH DAKOTA

CITY           SKY/WX    TMP DP  RH WIND       PRES   REMARKS
WILLISTON      FAIR      40  30  67 SE7       30.12R
MINOT          CLOUDY    33  28  81 E10       30.16R
MINOT AFB      SUNNY     31  26  79 SE12      30.16R
$$

NDZ018>021-031>035-040>046-241700-
SOUTHWEST NORTH DAKOTA

CITY           SKY/WX    TMP DP  RH WIND       PRES   REMARKS
BISMARCK       FAIR      36  31  82 E7        30.18R
DICKINSON      FAIR      39  31  72 SE7       30.09R
GARRISON         N/A     32  27  81 E10       30.15R
HETTINGER ARPT FOG       35  34  96 VRB3      30.13R VSB 1/4
$$

NDZ004>008-012>016-024-026-027-054-241700-
NORTHEAST NORTH DAKOTA

CITY           SKY/WX    TMP DP  RH WIND       PRES   REMARKS
GRAND FORKS    MOSUNNY   34  29  82 N16       30.17R
GRND FRKS AFB  MOSUNNY   34  27  77 N16G22    30.18R
DEVILS LAKE    FAIR      30  24  78 NE15      30.18R WCI  19
$$

NDZ022-023-025-028>030-036>039-047>053-241700-
SOUTHEAST NORTH DAKOTA

CITY           SKY/WX    TMP DP  RH WIND       PRES   REMARKS
FARGO          CLOUDY    37  33  85 N16       30.14R
JAMESTOWN      FAIR      34  27  75 NE10      30.15R
$$




USA.gov is the U.S. government's official web portal to all federal, state and local government web resources and services.